• Join FlightAware (Why Join?)
  • Login
  • US Flag GB Flag 
15:41 EDT


 

Airport Tracker/Info


-or-


 

Live Flight TrackerFlight Track Log ✈ ASQ5958 ✈ 31-Aug-2013 ✈ KBNA - KEWR

Flight Track Log - Related Links

Times and Time Zones

All times are in EDT time to prevent confusion due to time zone crossing. See the ASQ5958 flight status page for this flight to view local times or setup timezone preferences in your user account.

Time Position Orientation Groundspeed Altitude Reporting Facility
EDT Latitude Longitude Course Direction KTS MPH feet Rate Location/Type
06:44 36.1500 -86.7000 64° Northeast 177 204 1,100  Level Nashville TRACON
06:45 36.1500 -86.7333 270° West 178 205 2,400 1,980 Climbing Nashville TRACON
06:46 36.1667 -86.8000 287° West 209 241 4,300 1,800 Climbing Nashville TRACON
06:47 36.1608 -86.2963 76° East  Level FlightAware Approximate
06:47 36.2167 -86.7667 28° Northeast 255 293 6,000  Level Nashville TRACON
06:48 36.1846 -86.1745 80° East  Level FlightAware Approximate
06:48 36.2167 -86.6833 90° East 279 321 7,800  Level Nashville TRACON
06:49 36.2057 -86.0524 64° Northeast  Level FlightAware Approximate
06:49 36.2097 -86.5886 95° East 297 342 9,200  Level Memphis Center
06:50 36.2086 -86.4858 91° East 317 365 10,400 960 Climbing Memphis Center
06:51 36.2047 -86.3650 92° East 327 376 11,200 1,080 Climbing Memphis Center
06:52 36.2028 -86.2442 91° East 342 394 12,600 1,260 Climbing Memphis Center
06:53 36.2008 -86.1183 91° East 357 411 13,800 1,200 Climbing Memphis Center
06:54 36.2303 -86.0036 72° East 350 403 15,100 1,140 Climbing Memphis Center
06:56 36.3111 -85.8219 61° Northeast 366 421 17,000 1,020 Climbing Indianapolis Center
06:57 36.3639 -85.7111 59° Northeast 365 420 17,900 900 Climbing Indianapolis Center
06:58 36.4119 -85.6100 59° Northeast 365 420 18,900 1,020 Climbing Indianapolis Center
06:59 36.4650 -85.4989 59° Northeast 369 425 20,000 1,020 Climbing Indianapolis Center
07:00 36.5167 -85.3872 60° Northeast 371 427 21,000 1,020 Climbing Indianapolis Center
07:01 36.5719 -85.2717 59° Northeast 381 438 22,100 1,080 Climbing Indianapolis Center
07:02 36.6222 -85.1547 62° Northeast 383 441 23,200 1,020 Climbing Indianapolis Center
07:03 36.6614 -85.0269 69° East 389 448 24,200 1,020 Climbing Indianapolis Center
07:04 36.7000 -84.8992 69° East 391 450 25,300 960 Climbing Indianapolis Center
07:05 36.7397 -84.7714 69° East 393 452 26,200 840 Climbing Indianapolis Center
07:06 36.7786 -84.6417 69° East 399 459 27,000 720 Climbing Indianapolis Center
07:07 36.8211 -84.5044 69° East 403 464 27,700 780 Climbing Indianapolis Center
07:08 36.8606 -84.3706 70° East 409 471 28,600 960 Climbing Indianapolis Center
07:09 36.9011 -84.2389 69° East 406 467 29,700 1,020 Climbing Indianapolis Center
07:10 36.9389 -84.1081 70° East 401 461 30,700 1,020 Climbing Indianapolis Center
07:11 36.9772 -83.9789 70° East 395 455 31,800 1,020 Climbing Indianapolis Center
07:12 37.0161 -83.8500 69° East 394 453 32,800 840 Climbing Indianapolis Center
07:13 37.0561 -83.7206 69° East 396 456 33,600 720 Climbing Indianapolis Center
07:14 37.0931 -83.5897 70° East 399 459 34,300 660 Climbing Indianapolis Center
07:15 37.1322 -83.4572 70° East 403 464 35,000 300 Climbing Indianapolis Center
07:16 37.1719 -83.3211 70° East 413 475 35,000  Level Indianapolis Center
07:17 37.2142 -83.1761 70° East 434 499 35,000  Level Indianapolis Center
07:18 37.2644 -82.9986 70° East 457 526 35,000  Level Indianapolis Center
07:19 37.3019 -82.8692 70° East 466 536 35,000  Level Indianapolis Center
07:20 37.3536 -82.6853 70° East 475 547 35,000  Level Indianapolis Center
07:21 37.3964 -82.5311 71° East 468 539 35,000  Level Indianapolis Center
07:22 37.4406 -82.3761 70° East 469 540 35,000  Level Indianapolis Center
07:23 37.4836 -82.2233 70° East 464 534 35,000  Level Indianapolis Center
07:24 37.5247 -82.0706 71° East 461 531 35,000  Level Indianapolis Center
07:25 37.5661 -81.9197 71° East 456 525 35,000  Level Indianapolis Center
07:26 37.6078 -81.7694 71° East 453 521 35,000  Level Indianapolis Center
07:27 37.6478 -81.6211 71° East 448 516 35,000  Level Indianapolis Center
07:28 37.6842 -81.4858 71° East 447 514 35,000  Level Indianapolis Center
07:29 37.7222 -81.3397 72° East 449 517 35,000  Level Indianapolis Center
07:30 37.7703 -81.1642 71° East 453 521 35,000  Level Indianapolis Center
07:31 37.7883 -81.0097 82° East 457 526 35,000  Level Indianapolis Center
07:32 37.7986 -80.8522 85° East 461 531 35,000  Level Indianapolis Center
07:33 37.8081 -80.6953 86° East 461 531 35,000  Level Indianapolis Center
07:34 37.8206 -80.5136 85° East 465 535 35,000  Level Indianapolis Center
07:35 37.8300 -80.3467 86° East 463 533 35,000  Level Indianapolis Center
07:36 37.8367 -80.2539 85° East 460 529 35,000  Level Washington Center
07:37 37.8472 -80.0861 85° East 460 529 35,000  Level Washington Center
07:38 37.8597 -79.9108 85° East 460 529 35,000  Level Washington Center
07:39 37.8678 -79.7456 86° East 460 529 35,000  Level Washington Center
07:40 37.8797 -79.5803 85° East 460 529 35,000  Level Washington Center
07:41 37.8892 -79.4150 86° East 460 529 35,000  Level Washington Center
07:42 37.8964 -79.2522 87° East 460 529 35,000  Level Washington Center
07:43 37.9050 -79.1028 86° East 460 529 35,000  Level Washington Center
07:44 37.9242 -78.9403 81° East 460 529 35,000  Level Washington Center
07:45 37.9433 -78.7806 81° East 460 529 35,000  Level Washington Center
07:46 37.9619 -78.6156 82° East 460 529 35,000  Level Washington Center
07:47 37.9828 -78.4528 81° East 465 535 35,000  Level Washington Center
07:48 38.0036 -78.2692 82° East 465 535 35,000  Level Washington Center
07:49 38.0275 -78.1303 78° East 465 535 35,000  Level Washington Center
07:50 38.0928 -77.9953 58° Northeast 436 502 35,000 -180 Level Washington Center
07:51 38.1603 -77.8603 58° Northeast 441 507 34,700 -900 Descending Washington Center
07:52 38.2272 -77.7247 58° Northeast 446 513 33,300 -900 Descending Washington Center
07:53 38.2942 -77.5892 58° Northeast 446 513 33,000 -180 Descending Washington Center
07:54 38.3589 -77.4531 59° Northeast 451 519 33,000  Level Washington Center
07:55 38.4300 -77.3117 57° Northeast 451 519 33,000  Level Washington Center
07:56 38.4964 -77.1753 58° Northeast 451 519 33,000  Level Washington Center
07:57 38.5792 -77.0550 49° Northeast 451 519 33,000  Level Washington Center
07:58 38.6767 -76.9239 46° Northeast 451 519 33,000  Level Washington Center
07:59 38.7633 -76.8031 47° Northeast 456 525 33,000  Level Washington Center
08:00 38.8500 -76.6792 48° Northeast 456 525 33,000  Level Washington Center
08:01 38.9367 -76.5631 46° Northeast 461 531 33,000 -360 Level Washington Center
08:02 39.0208 -76.4411 48° Northeast 461 531 32,300 -1,500 Descending Washington Center
08:03 39.1069 -76.3192 48° Northeast 461 531 30,000 -2,340 Descending Washington Center
08:04 39.1933 -76.1942 48° Northeast 461 531 27,600 -1,500 Descending Washington Center
08:05 39.2792 -76.0850 45° Northeast 471 542 27,000 -360 Descending Washington Center
08:06 39.3775 -75.9700 42° Northeast 471 542 27,000  Level Washington Center
08:07 39.4736 -75.8550 43° Northeast 471 542 27,000 -600 Level Washington Center
08:08 39.5781 -75.7289 43° Northeast 471 542 25,800 -1,920 Descending Washington Center
08:09 39.6719 -75.6186 42° Northeast 466 536 23,100 -2,580 Descending Washington Center
08:10 39.7636 -75.5106 42° Northeast 454 522 20,800 -2,460 Descending Washington Center
08:11 39.8508 -75.4050 43° Northeast 440 506 18,300 -2,460 Descending Washington Center
08:12 39.9381 -75.2992 43° Northeast 428 493 15,900 -2,460 Descending Washington Center
08:13 40.0211 -75.1958 44° Northeast 417 480 13,500 -2,280 Descending Washington Center
08:14 40.0981 -75.1006 43° Northeast 399 459 11,400 -1,440 Descending Washington Center
08:15 40.1833 -75.0000 42° Northeast 302 348 10,200 -1,320 Descending New York TRACON
08:16 40.2333 -74.9333 45° Northeast 296 341 8,600 -1,200 Descending New York TRACON
08:17 40.3000 -74.8500 44° Northeast 300 345 8,000 -360 Descending New York TRACON
08:18 40.3500 -74.7833 45° Northeast 291 335 7,900 -600 Descending New York TRACON
08:19 40.4167 -74.7333 30° Northeast 292 336 6,900 -1,020 Descending New York TRACON
08:20 40.4833 -74.6833 30° Northeast 289 333 6,000 -900 Descending New York TRACON
08:21 40.5500 -74.6167 37° Northeast 285 328 5,100 -540 Descending New York TRACON
08:22 40.6167 -74.5833 21° North 282 325 5,000 -180 Descending New York TRACON
08:23 40.6833 -74.5333 30° Northeast 280 322 4,800 -540 Descending New York TRACON
08:24 40.7667 -74.5000 17° North 284 327 4,000 -480 Descending New York TRACON
08:24 40.8000 -74.4333 57° Northeast 289 333 4,000  Level New York TRACON
08:26 40.8667 -74.3500 43° Northeast 287 330 4,000  Level New York TRACON
08:26 40.9167 -74.2833 45° Northeast 287 330 4,000 -240 Level New York TRACON
08:27 40.9000 -74.2000 105° East 279 321 3,600 -480 Descending New York TRACON
08:28 40.8667 -74.1167 118° Southeast 278 320 3,100 -720 Descending New York TRACON
08:29 40.8000 -74.1000 169° South 246 283 2,200 -960 Descending New York TRACON
08:30 40.7500 -74.1333 207° Southwest 182 209 1,300 -840 Descending New York TRACON
08:31 40.7333 -74.1500 217° Southwest 127 146 700 -720 Descending New York TRACON